When you browse on this site, cookies collect data to enhance your experience and personalize the content and advertising you see.
Visit our Privacy Policy to learn more. By continuing to use the site, you agree to this use of cookies and data.
  • en France
  • Liste des pays
  • À 7 jours
  • Température de l'eau
  • Carte météo
  • Widgets météo
  • user-avatar
    Se connecter

    Météo par heure à Siempang

    Ce jour, 1 Juin, Lundi

    Heure Température Précipitation Vent Pression Humidité
    00:00 +25°C° 0.2 mm 0 m/s 752 mmHg 90%
    01:00 +25°C° 0 mm 0 m/s 752 mmHg 89%
    02:00 +25°C° 0 mm 0 m/s 752 mmHg 90%
    03:00 +25°C° 0 mm 0 m/s 752 mmHg 90%
    04:00 +24°C° 0 mm 0 m/s 752 mmHg 91%
    05:00 +24°C° 0.5 mm 0 m/s 752 mmHg 92%
    06:00 +27°C° 0.5 mm 1 m/s 752 mmHg 93%
    07:00 +27°C° 0 mm 1 m/s 753 mmHg 91%
    08:00 +29°C° 0 mm 1 m/s 753 mmHg 82%
    09:00 +29°C° 0 mm 0 m/s 753 mmHg 73%
    10:00 +32°C° 0 mm 0 m/s 753 mmHg 63%
    11:00 +33°C° 0 mm 0 m/s 752 mmHg 60%
    12:00 +34°C° 0 mm 0 m/s 752 mmHg 56%
    13:00 +36°C° 0 mm 1 m/s 751 mmHg 52%
    14:00 +36°C° 0.1 mm 1 m/s 750 mmHg 55%
    15:00 +35°C° 0.1 mm 1 m/s 750 mmHg 58%
    16:00 +35°C° 0.1 mm 1 m/s 749 mmHg 61%
    17:00 +33°C° 0.1 mm 1 m/s 750 mmHg 68%
    18:00 +31°C° 0.1 mm 1 m/s 750 mmHg 75%
    19:00 +28°C° 0.1 mm 0 m/s 751 mmHg 82%
    20:00 +27°C° 0.2 mm 0 m/s 751 mmHg 84%
    21:00 +27°C° 0.2 mm 0 m/s 751 mmHg 86%
    22:00 +26°C° 0.2 mm 0 m/s 751 mmHg 89%
    23:00 +26°C° 0.2 mm 0 m/s 751 mmHg 90%

    Demain, 2 Juin, Mardi

    Heure Température Précipitation Vent Pression Humidité
    00:00 +25°C° 0.2 mm 0 m/s 751 mmHg 91%
    01:00 +25°C° 0.2 mm 0 m/s 751 mmHg 92%
    02:00 +25°C° 0.5 mm 0 m/s 751 mmHg 93%
    03:00 +24°C° 0.5 mm 0 m/s 751 mmHg 94%
    04:00 +24°C° 0.5 mm 0 m/s 750 mmHg 96%
    05:00 +24°C° 0 mm 0 m/s 751 mmHg 95%
    06:00 +25°C° 0 mm 0 m/s 751 mmHg 94%
    07:00 +25°C° 0 mm 0 m/s 751 mmHg 93%
    08:00 +28°C° 0 mm 0 m/s 751 mmHg 83%
    09:00 +32°C° 0 mm 1 m/s 751 mmHg 73%
    10:00 +34°C° 0 mm 1 m/s 751 mmHg 63%
    11:00 +35°C° 0.2 mm 1 m/s 751 mmHg 62%
    12:00 +35°C° 0.2 mm 1 m/s 750 mmHg 61%
    13:00 +36°C° 0.2 mm 1 m/s 750 mmHg 59%
    14:00 +35°C° 0.8 mm 1 m/s 749 mmHg 65%
    15:00 +34°C° 0.8 mm 1 m/s 748 mmHg 70%
    16:00 +33°C° 0.8 mm 1 m/s 748 mmHg 75%
    17:00 +32°C° 0.4 mm 1 m/s 748 mmHg 81%
    18:00 +30°C° 0.4 mm 1 m/s 749 mmHg 86%
    19:00 +28°C° 0.4 mm 1 m/s 750 mmHg 92%
    20:00 +28°C° 0 mm 1 m/s 750 mmHg 93%
    21:00 +28°C° 0 mm 1 m/s 751 mmHg 94%
    22:00 +27°C° 0 mm 1 m/s 751 mmHg 95%
    23:00 +27°C° 0.3 mm 1 m/s 751 mmHg 95%

    Après-demain, 3 Juin, Mercredi

    Heure Température Précipitation Vent Pression Humidité
    00:00 +27°C° 0.3 mm 1 m/s 751 mmHg 95%
    01:00 +26°C° 0.3 mm 1 m/s 751 mmHg 96%
    02:00 +26°C° 0.6 mm 1 m/s 751 mmHg 96%
    03:00 +26°C° 0.6 mm 1 m/s 750 mmHg 96%
    04:00 +25°C° 0.6 mm 1 m/s 750 mmHg 97%
    05:00 +24°C° 0.1 mm 0 m/s 750 mmHg 96%
    06:00 +24°C° 0.1 mm 0 m/s 751 mmHg 95%
    07:00 +24°C° 0.1 mm 0 m/s 751 mmHg 95%
    08:00 +26°C° 0 mm 0 m/s 751 mmHg 86%
    09:00 +28°C° 0 mm 0 m/s 751 mmHg 78%
    10:00 +30°C° 0 mm 0 m/s 751 mmHg 70%
    11:00 +31°C° 0.1 mm 0 m/s 751 mmHg 65%
    12:00 +34°C° 0.1 mm 1 m/s 750 mmHg 61%
    13:00 +35°C° 0.1 mm 1 m/s 749 mmHg 57%
    14:00 +34°C° 1.5 mm 1 m/s 749 mmHg 63%
    15:00 +33°C° 1.5 mm 1 m/s 748 mmHg 70%
    16:00 +32°C° 1.5 mm 1 m/s 748 mmHg 77%
    17:00 +31°C° 0.6 mm 1 m/s 748 mmHg 82%
    18:00 +27°C° 0.6 mm 0 m/s 748 mmHg 87%
    19:00 +26°C° 0.6 mm 0 m/s 749 mmHg 92%
    20:00 +26°C° 0 mm 0 m/s 749 mmHg 92%
    21:00 +25°C° 0 mm 0 m/s 750 mmHg 93%
    22:00 +25°C° 0 mm 0 m/s 750 mmHg 93%
    23:00 +25°C° 0 mm 0 m/s 750 mmHg 94%

    4 Juin, Jeudi

    Heure Température Précipitation Vent Pression Humidité
    00:00 +25°C° 0 mm 0 m/s 750 mmHg 94%
    01:00 +26°C° 0 mm 1 m/s 750 mmHg 94%
    02:00 +24°C° 0 mm 0 m/s 749 mmHg 95%
    03:00 +24°C° 0 mm 0 m/s 749 mmHg 95%
    04:00 +24°C° 0 mm 0 m/s 749 mmHg 96%
    05:00 +25°C° 0.1 mm 0 m/s 749 mmHg 94%
    06:00 +27°C° 0.1 mm 1 m/s 750 mmHg 92%
    07:00 +28°C° 0.1 mm 1 m/s 750 mmHg 91%
    08:00 +29°C° 2.1 mm 1 m/s 750 mmHg 89%
    09:00 +30°C° 2.1 mm 1 m/s 750 mmHg 88%
    10:00 +31°C° 2.1 mm 1 m/s 750 mmHg 86%
    11:00 +31°C° 1.3 mm 1 m/s 750 mmHg 84%
    12:00 +32°C° 1.3 mm 1 m/s 749 mmHg 81%
    13:00 +32°C° 1.3 mm 1 m/s 749 mmHg 79%
    14:00 +30°C° 0.2 mm 0 m/s 748 mmHg 77%
    15:00 +30°C° 0.2 mm 0 m/s 748 mmHg 75%
    16:00 +30°C° 0.2 mm 0 m/s 748 mmHg 73%
    17:00 +29°C° 0.2 mm 0 m/s 748 mmHg 78%
    18:00 +28°C° 0.2 mm 0 m/s 748 mmHg 83%
    19:00 +26°C° 0.2 mm 0 m/s 749 mmHg 89%
    20:00 +26°C° 0.1 mm 0 m/s 749 mmHg 89%
    21:00 +28°C° 0.1 mm 1 m/s 750 mmHg 90%
    22:00 +27°C° 0.1 mm 1 m/s 751 mmHg 91%
    23:00 +27°C° 0.2 mm 1 m/s 750 mmHg 92%

    5 Juin, Vendredi

    Heure Température Précipitation Vent Pression Humidité
    00:00 +27°C° 0.2 mm 1 m/s 750 mmHg 94%
    01:00 +26°C° 0.2 mm 1 m/s 749 mmHg 96%
    02:00 +26°C° 0 mm 1 m/s 749 mmHg 96%
    03:00 +26°C° 0 mm 1 m/s 749 mmHg 97%
    04:00 +26°C° 0 mm 1 m/s 749 mmHg 97%
    05:00 +27°C° 0 mm 1 m/s 749 mmHg 96%
    06:00 +27°C° 0 mm 1 m/s 750 mmHg 95%
    07:00 +27°C° 0 mm 1 m/s 750 mmHg 94%
    08:00 +29°C° 0.2 mm 1 m/s 750 mmHg 84%
    09:00 +31°C° 0.2 mm 1 m/s 751 mmHg 75%
    10:00 +33°C° 0.2 mm 1 m/s 751 mmHg 66%
    11:00 +34°C° 0.3 mm 2 m/s 750 mmHg 65%
    12:00 +35°C° 0.3 mm 2 m/s 749 mmHg 64%
    13:00 +35°C° 0.3 mm 2 m/s 749 mmHg 63%
    14:00 +34°C° 1.7 mm 2 m/s 748 mmHg 70%
    15:00 +32°C° 1.7 mm 1 m/s 748 mmHg 77%
    16:00 +31°C° 1.7 mm 1 m/s 747 mmHg 84%
    17:00 +30°C° 0.4 mm 1 m/s 748 mmHg 87%
    18:00 +27°C° 0.4 mm 0 m/s 748 mmHg 90%
    19:00 +26°C° 0.4 mm 0 m/s 749 mmHg 93%
    20:00 +26°C° 0 mm 0 m/s 749 mmHg 93%
    21:00 +25°C° 0 mm 0 m/s 750 mmHg 94%
    22:00 +27°C° 0 mm 1 m/s 750 mmHg 94%
    23:00 +27°C° 0 mm 1 m/s 750 mmHg 94%

    6 Juin, Samedi

    Heure Température Précipitation Vent Pression Humidité
    00:00 +27°C° 0 mm 1 m/s 749 mmHg 95%
    01:00 +26°C° 0 mm 1 m/s 749 mmHg 95%
    02:00 +26°C° 0 mm 1 m/s 749 mmHg 96%
    03:00 +26°C° 0 mm 1 m/s 748 mmHg 96%
    04:00 +26°C° 0 mm 1 m/s 748 mmHg 97%
    05:00 +27°C° 0.4 mm 1 m/s 749 mmHg 96%
    06:00 +27°C° 0.4 mm 1 m/s 749 mmHg 95%
    07:00 +27°C° 0.4 mm 1 m/s 750 mmHg 93%
    08:00 +29°C° 0.7 mm 1 m/s 750 mmHg 87%
    09:00 +31°C° 0.7 mm 1 m/s 750 mmHg 80%
    10:00 +32°C° 0.7 mm 2 m/s 750 mmHg 74%
    11:00 +33°C° 0.5 mm 1 m/s 749 mmHg 72%
    12:00 +33°C° 0.5 mm 1 m/s 749 mmHg 70%
    13:00 +34°C° 0.5 mm 1 m/s 748 mmHg 68%
    14:00 +34°C° 0.1 mm 1 m/s 748 mmHg 66%
    15:00 +35°C° 0.1 mm 1 m/s 747 mmHg 63%
    16:00 +33°C° 0.1 mm 0 m/s 746 mmHg 61%
    17:00 +31°C° 1.6 mm 0 m/s 747 mmHg 72%
    18:00 +28°C° 1.6 mm 0 m/s 747 mmHg 82%
    19:00 +26°C° 1.6 mm 0 m/s 748 mmHg 92%
    20:00 +26°C° 1.8 mm 0 m/s 748 mmHg 93%
    21:00 +28°C° 1.8 mm 1 m/s 749 mmHg 94%
    22:00 +27°C° 1.8 mm 1 m/s 750 mmHg 95%
    23:00 +27°C° 1.7 mm 1 m/s 749 mmHg 96%
    Voir plus